Weather History for KCDA - September, 2012

Change the Weather History Date:

Saturday, September 29, 2012

  Actual Average (K1V4) Record (K1V4)
Temperature  
Mean Temperature 52 °F 54 °F  
Max Temperature 56 °F 65 °F 82 °F (1952)
Min Temperature 47 °F 43 °F 24 °F (1947)
Degree Days  
Heating Degree Days 14 11  
Month to date heating degree days 174  
Since 1 July heating degree days 224  
Cooling Degree Days 0 0  
Month to date cooling degree days 33  
Year to date cooling degree days 431  
Growing Degree Days 2 (Base 50)    
Moisture  
Dew Point 48 °F    
Average Humidity 88    
Maximum Humidity 92    
Minimum Humidity 74    
Precipitation  
Precipitation 0.00 in 0.13 in 1.45 in (1907)
Month to date precipitation 3.27  
Year to date precipitation 29.03  
Sea Level Pressure  
Sea Level Pressure 29.98 in    
Wind  
Wind Speed 0 mph (North)    
Max Wind Speed 7 mph    
Max Gust Speed -    
Visibility 7 miles    
Events Fog , Rain    
T = Trace of Precipitation, MM = Missing Value Source: NWS Daily Summary

Daily Weather History Graph

Daily Weather History Graph

Search for Another Location

Airport or City:

Trip Planner

Search our weather history database for the weather conditions in past years. The results will help you decide how hot, cold, wet, or windy it might be!

Date:

Astronomy

Sep. 29, 2012 Rise Set
Actual Time 6:44 AM EDT 6:31 PM EDT
Civil Twilight 6:15 AM EDT 7:00 PM EDT
Nautical Twilight 5:41 AM EDT 7:34 PM EDT
Astronomical Twilight 5:06 AM EDT 8:08 PM EDT
Moon 6:00 PM EDT (9/29) 6:13 AM EDT (9/29)
Length of Visible Light 12h 45m
Length of Day
11h 47m
Full, 100% of the Moon is Illuminated
Sep 29
Full
Sep 29
Full
Oct 8
Last Quarter
Oct 15
New
Oct 21
First Quarter

Hourly Weather History & Observations

Time (EDT) Temp. Dew Point Humidity Pressure Visibility Wind Dir Wind Speed Gust Speed Precip Events Conditions
12:15 AM 47.5 °F 45.0 °F 91% 30.06 in 0.5 mi Calm Calm - N/A Fog Fog
12:35 AM 47.5 °F 45.0 °F 91% 30.06 in 1.0 mi Calm Calm - N/A   Overcast
12:55 AM 47.5 °F 45.0 °F 91% 30.05 in 2.0 mi Calm Calm - N/A   Overcast
1:15 AM 47.7 °F 45.1 °F 91% 30.05 in 10.0 mi Calm Calm - N/A   Overcast
1:35 AM 47.5 °F 45.0 °F 91% 30.05 in 0.5 mi Calm Calm - N/A Fog Fog
1:55 AM 47.5 °F 45.0 °F 91% 30.04 in 0.5 mi Calm Calm - N/A Fog Fog
2:15 AM 47.5 °F 45.0 °F 91% 30.04 in 3.0 mi Calm Calm - N/A   Overcast
2:35 AM 47.5 °F 45.0 °F 91% 30.03 in 3.0 mi Calm Calm - N/A   Overcast
2:55 AM 47.5 °F 45.0 °F 91% 30.02 in 1.8 mi Calm Calm - N/A   Overcast
3:15 AM 47.7 °F 45.3 °F 92% 30.01 in 10.0 mi Calm Calm - N/A   Overcast
3:35 AM 47.7 °F 45.1 °F 91% 30.01 in 7.0 mi Calm Calm - N/A   Overcast
3:55 AM 47.7 °F 45.3 °F 92% 30.00 in 7.0 mi Calm Calm - N/A   Drizzle
4:15 AM 47.8 °F 45.5 °F 92% 30.01 in 5.0 mi Calm Calm - N/A Rain Rain
4:35 AM 48.2 °F 45.7 °F 91% 30.00 in 7.0 mi Calm Calm - N/A Rain Rain
4:55 AM 48.4 °F 45.9 °F 91% 30.01 in 10.0 mi Calm Calm - N/A   Light Drizzle
5:15 AM 49.1 °F 46.4 °F 90% 30.01 in 10.0 mi Calm Calm - N/A   Drizzle
5:35 AM 48.4 °F 45.5 °F 90% 30.01 in 4.0 mi Calm Calm - N/A Rain Rain
5:55 AM 48.2 °F 45.5 °F 90% 30.01 in 2.5 mi Calm Calm - N/A Rain Rain
6:15 AM 47.8 °F 45.1 °F 90% 30.01 in 5.0 mi Calm Calm - N/A Rain Light Rain
6:35 AM 48.4 °F 45.7 °F 90% 30.00 in 5.0 mi Calm Calm - N/A   Drizzle
6:55 AM 48.0 °F 45.3 °F 90% 30.00 in 2.0 mi Calm Calm - N/A   Drizzle
7:15 AM 48.2 °F 45.5 °F 90% 30.01 in 3.0 mi Calm Calm - N/A   Drizzle
7:35 AM 48.4 °F 45.7 °F 90% 30.01 in 3.0 mi Calm Calm - N/A   Drizzle
7:55 AM 48.7 °F 46.2 °F 91% 30.01 in 2.0 mi Calm Calm - N/A   Drizzle
8:15 AM 49.1 °F 46.4 °F 90% 30.01 in 4.0 mi Calm Calm - N/A   Light Drizzle
8:35 AM 49.5 °F 46.6 °F 90% 30.01 in 4.0 mi Calm Calm - N/A Rain Light Rain
8:55 AM 49.6 °F 46.8 °F 90% 30.00 in 4.0 mi Calm Calm - N/A   Overcast
9:15 AM 49.8 °F 46.6 °F 89% 30.00 in 5.0 mi Calm Calm - N/A   Overcast
9:35 AM 50.2 °F 46.8 °F 88% 30.00 in 4.0 mi Calm Calm - N/A   Overcast
9:55 AM 50.9 °F 47.1 °F 87% 30.00 in 7.0 mi Calm Calm - N/A   Overcast
10:15 AM 51.1 °F 47.3 °F 87% 29.99 in 7.0 mi North 3.5 mph - N/A   Overcast
10:35 AM 50.9 °F 47.3 °F 87% 29.99 in 5.0 mi Calm Calm - N/A   Overcast
10:55 AM 51.1 °F 47.3 °F 87% 29.98 in 10.0 mi Calm Calm - N/A   Overcast
11:15 AM 51.4 °F 47.7 °F 87% 29.98 in 7.0 mi Calm Calm - N/A   Overcast
11:35 AM 52.7 °F 49.1 °F 88% 29.97 in 10.0 mi Calm Calm - N/A   Overcast
11:55 AM 52.7 °F 48.4 °F 85% 29.97 in 7.0 mi Calm Calm - N/A   Overcast
12:15 PM 52.7 °F 48.7 °F 86% 29.97 in 3.0 mi Calm Calm - N/A   Overcast
12:35 PM 52.9 °F 48.6 °F 85% 29.96 in 4.0 mi Calm Calm - N/A   Overcast
12:55 PM 53.6 °F 49.1 °F 85% 29.96 in 10.0 mi Calm Calm - N/A   Overcast
1:15 PM 55.0 °F 48.2 °F 78% 29.95 in 10.0 mi Calm Calm - N/A   Overcast
1:35 PM 55.8 °F 48.7 °F 77% 29.95 in 10.0 mi North 3.5 mph - N/A   Overcast
1:55 PM 55.4 °F 48.2 °F 77% 29.95 in 10.0 mi Calm Calm - N/A   Overcast
2:15 PM 56.3 °F 48.2 °F 74% 29.94 in 10.0 mi Calm Calm - N/A   Overcast
2:35 PM 55.8 °F 48.4 °F 76% 29.93 in 10.0 mi North 4.6 mph - N/A   Overcast
2:55 PM 55.0 °F 49.1 °F 80% 29.93 in 4.0 mi Calm Calm - N/A   Haze
3:15 PM 54.5 °F 49.5 °F 83% 29.93 in 3.0 mi North 4.6 mph - N/A   Haze
3:35 PM 54.5 °F 50.2 °F 85% 29.93 in 4.0 mi North 4.6 mph - N/A   Haze
3:55 PM 54.9 °F 50.5 °F 85% 29.93 in 5.0 mi North 4.6 mph - N/A   Overcast
4:15 PM 54.5 °F 50.4 °F 86% 29.92 in 3.0 mi NNW 4.6 mph - N/A   Overcast
4:35 PM 54.7 °F 50.4 °F 85% 29.93 in 10.0 mi Calm Calm - N/A   Overcast
4:55 PM 54.5 °F 50.2 °F 85% 29.93 in 4.0 mi NNW 4.6 mph - N/A   Haze
5:15 PM 54.5 °F 50.0 °F 85% 29.93 in 2.5 mi North 3.5 mph - N/A   Overcast
5:35 PM 54.3 °F 50.0 °F 85% 29.92 in 10.0 mi NNW 3.5 mph - N/A   Overcast
6:15 PM 54.3 °F 49.3 °F 83% 29.93 in 10.0 mi North 6.9 mph - N/A   Overcast
6:35 PM 53.8 °F 49.1 °F 84% 29.93 in 10.0 mi Calm Calm - N/A   Overcast
6:55 PM 52.7 °F 49.3 °F 88% 29.93 in 10.0 mi Calm Calm - N/A   Overcast
7:15 PM 52.7 °F 49.8 °F 90% 29.93 in 10.0 mi Calm Calm - N/A   Overcast
7:35 PM 52.7 °F 50.0 °F 91% 29.93 in 10.0 mi Calm Calm - N/A   Overcast
7:55 PM 52.7 °F 49.1 °F 88% 29.94 in 10.0 mi Calm Calm - N/A   Overcast
8:15 PM 52.7 °F 49.1 °F 88% 29.94 in 10.0 mi Calm Calm - N/A   Overcast
8:35 PM 52.7 °F 48.7 °F 86% 29.94 in 10.0 mi Calm Calm - N/A   Overcast
8:55 PM 52.0 °F 48.9 °F 89% 29.94 in 10.0 mi Calm Calm - N/A   Overcast
9:15 PM 51.8 °F 48.6 °F 89% 29.94 in 10.0 mi Calm Calm - N/A   Overcast
9:35 PM 51.8 °F 48.7 °F 89% 29.94 in 10.0 mi Calm Calm - N/A   Overcast
9:55 PM 52.0 °F 49.1 °F 90% 29.94 in 10.0 mi Calm Calm - N/A   Overcast
10:15 PM 51.4 °F 48.6 °F 90% 29.94 in 10.0 mi Calm Calm - N/A   Overcast
10:35 PM 51.4 °F 48.6 °F 90% 29.94 in 10.0 mi Calm Calm - N/A   Overcast
10:55 PM 51.8 °F 48.7 °F 89% 29.94 in 10.0 mi Calm Calm - N/A   Overcast
11:15 PM 51.8 °F 48.7 °F 89% 29.94 in 10.0 mi Calm Calm - N/A   Overcast
11:35 PM 51.8 °F 48.7 °F 89% 29.94 in 10.0 mi Calm Calm - N/A   Overcast
11:55 PM 52.7 °F 48.6 °F 86% 29.94 in 10.0 mi Calm Calm - N/A   Overcast